Date String (YYYY-MM-DD hh:mm:ss) UTC,Instrument flags,Ambient pressure (hPa),Sample flow (lpm),Bypass flow (lpm),Sample temperature (°C),Ambient temperature (°C),ASC tube jacket temperature (°C),LED temperature (°C),Box temperature (°C),Sample RH (%),Span deviation,Mass concentration (μg/m³),Mass concentration (μg/m³),Mass concentration (μg/m³)
DateTimeUTC,F1_M11,P_M11,Q1_M11,Q2_M11,T1_M11,T2_M11,T3_M11,T4_M11,T5_M11,U1_M11,ZSPAN_M11,X2_M11,X0_M11,X1_M11
2021-10-28 21:00:00,,0830.7,4.99,0.00,26.1,25.5,00.0,34.9,28.0,12.3,0000.0,0005.55,0017.89,0004.79
2021-10-28 21:01:00,,0830.6,5.01,0.00,26.1,25.5,00.0,34.9,28.0,12.2,0000.0,0005.55,0018.62,0004.78
2021-10-28 21:02:00,,0830.6,5.00,0.00,26.1,25.5,00.0,35.0,28.0,12.3,0000.0,0005.50,0018.46,0004.76
2021-10-28 21:03:00,,0830.6,4.99,0.00,26.1,25.5,00.0,35.0,28.1,12.3,0000.0,0005.53,0018.71,0004.74
2021-10-28 21:04:00,,0830.6,5.01,0.00,26.1,25.5,00.0,35.0,28.1,12.2,0000.0,0005.60,0019.17,0004.76
2021-10-28 21:05:00,,0830.6,4.99,0.00,26.2,25.6,00.0,35.0,28.1,12.2,0000.0,0005.60,0018.71,0004.78
2021-10-28 21:06:00,,0830.6,5.00,0.00,26.2,25.6,00.0,35.0,28.1,12.2,0000.0,0005.63,0018.97,0004.80
2021-10-28 21:07:00,,0830.7,5.00,0.00,26.2,25.6,00.0,35.0,28.1,12.3,0000.0,0005.62,0016.90,0004.80
2021-10-28 21:08:00,,0830.8,5.01,0.00,26.2,25.7,00.0,35.1,28.2,12.3,0000.0,0005.67,0016.57,0004.81
2021-10-28 21:09:00,,0830.8,4.99,0.00,26.3,25.7,00.0,35.1,28.2,12.3,0000.0,0005.72,0016.69,0004.82
2021-10-28 21:10:00,,0830.7,5.00,0.00,26.3,25.7,00.0,35.1,28.2,12.3,0000.0,0005.73,0017.06,0004.80
2021-10-28 21:11:00,,0830.7,5.01,0.00,26.3,25.7,00.0,35.1,28.2,12.3,0000.0,0005.74,0017.15,0004.79
2021-10-28 21:12:00,,0830.7,5.00,0.00,26.3,25.8,00.0,35.1,28.3,12.2,0000.0,0005.75,0017.79,0004.79
2021-10-28 21:13:00,,0830.7,5.00,0.00,26.4,25.8,00.0,35.2,28.3,12.2,0000.0,0005.80,0018.52,0004.80
2021-10-28 21:14:00,,0830.8,5.00,0.00,26.4,25.8,00.0,35.2,28.3,12.2,0000.0,0005.73,0018.31,0004.79
2021-10-28 21:15:00,,0830.7,5.01,0.00,26.4,25.8,00.0,35.2,28.3,12.1,0000.0,0005.68,0017.82,0004.78
2021-10-28 21:16:00,,0830.8,5.00,0.00,26.4,25.8,00.0,35.2,28.3,12.1,0000.0,0005.66,0017.81,0004.77
2021-10-28 21:17:00,,0830.8,4.99,0.00,26.4,25.8,00.0,35.3,28.3,12.1,0000.0,0005.67,0017.86,0004.77
2021-10-28 21:18:00,,0830.8,4.99,0.00,26.4,25.8,00.0,35.3,28.3,12.1,0000.0,0005.70,0018.05,0004.77
2021-10-28 21:19:00,,0830.8,5.00,0.00,26.4,25.8,00.0,35.3,28.3,12.1,0000.0,0005.71,0018.06,0004.79
2021-10-28 21:20:00,,0830.8,4.99,0.00,26.5,25.9,00.0,35.3,28.4,12.1,0000.0,0005.68,0018.89,0004.80
2021-10-28 21:21:00,,0830.8,5.00,0.00,26.5,25.9,00.0,35.3,28.4,12.1,0000.0,0005.68,0018.26,0004.82
2021-10-28 21:22:00,,0830.8,5.01,0.00,26.5,25.9,00.0,35.3,28.4,12.1,0000.0,0005.67,0017.91,0004.85
2021-10-28 21:23:00,,0830.8,4.99,0.00,26.5,25.9,00.0,35.4,28.5,12.1,0000.0,0005.65,0017.19,0004.87
2021-10-28 21:24:00,,0830.8,5.00,0.00,26.5,26.0,00.0,35.4,28.5,12.0,0000.0,0005.65,0015.78,0004.88
2021-10-28 21:25:00,,0830.7,5.01,0.00,26.6,26.0,00.0,35.4,28.5,12.0,0000.0,0005.69,0015.10,0004.90
2021-10-28 21:26:00,,0830.8,5.00,0.00,26.6,26.0,00.0,35.4,28.5,12.0,0000.0,0005.72,0015.47,0004.91
2021-10-28 21:27:00,,0830.8,4.99,0.00,26.6,26.0,00.0,35.4,28.5,12.0,0000.0,0005.78,0015.92,0004.93
2021-10-28 21:28:00,,0830.8,5.00,0.00,26.6,26.0,00.0,35.4,28.5,12.0,0000.0,0005.78,0016.75,0004.94
2021-10-28 21:29:00,,0830.8,5.00,0.00,26.6,26.0,00.0,35.5,28.5,12.1,0000.0,0005.75,0016.45,0004.95
2021-10-28 21:30:00,,0830.9,5.01,0.00,26.6,26.1,00.0,35.5,28.6,12.0,0000.0,0005.74,0016.24,0004.95
2021-10-28 21:31:00,,0830.9,5.00,0.00,26.7,26.1,00.0,35.5,28.6,12.0,0000.0,0005.74,0015.64,0004.94
2021-10-28 21:32:00,,0830.9,4.98,0.00,26.7,26.1,00.0,35.5,28.6,12.0,0000.0,0005.76,0015.69,0004.94
2021-10-28 21:33:00,,0830.9,5.01,0.00,26.7,26.1,00.0,35.5,28.6,12.0,0000.0,0005.75,0015.55,0004.93
2021-10-28 21:34:00,,0830.8,5.00,0.00,26.7,26.1,00.0,35.6,28.6,12.0,0000.0,0005.73,0016.03,0004.93
2021-10-28 21:35:00,,0830.8,5.00,0.00,26.7,26.1,00.0,35.6,28.6,12.1,0000.0,0005.71,0017.08,0004.91
2021-10-28 21:36:00,,0830.9,4.98,0.00,26.7,26.1,00.0,35.6,28.7,12.0,0000.0,0005.69,0016.84,0004.91
2021-10-28 21:37:00,,0830.9,5.01,0.00,26.7,26.1,00.0,35.6,28.7,12.0,0000.0,0005.69,0016.45,0004.93
2021-10-28 21:38:00,,0830.9,5.01,0.00,26.8,26.2,00.0,35.6,28.7,12.0,0000.0,0005.71,0015.60,0004.94
2021-10-28 21:39:00,,0830.9,5.00,0.00,26.8,26.2,00.0,35.6,28.7,12.0,0000.0,0005.73,0014.65,0004.93
2021-10-28 21:40:00,,0830.9,4.99,0.00,26.8,26.2,00.0,35.7,28.7,12.0,0000.0,0005.72,0014.63,0004.91
2021-10-28 21:41:00,,0830.9,5.01,0.00,26.8,26.2,00.0,35.7,28.8,12.1,0000.0,0005.74,0015.34,0004.90
2021-10-28 21:42:00,,0830.9,5.01,0.00,26.9,26.3,00.0,35.7,28.8,12.2,0000.0,0005.76,0016.22,0004.88
2021-10-28 21:43:00,,0830.9,5.02,0.00,26.9,26.3,00.0,35.7,28.8,12.2,0000.0,0005.71,0016.71,0004.86
2021-10-28 21:44:00,,0830.9,4.99,0.00,26.9,26.3,00.0,35.7,28.8,12.0,0000.0,0005.70,0016.49,0004.86
2021-10-28 21:45:00,,0830.9,4.99,0.00,26.9,26.3,00.0,35.8,28.8,11.9,0000.0,0005.76,0016.30,0004.87
2021-10-28 21:46:00,,0830.9,5.01,0.00,26.9,26.3,00.0,35.8,28.8,11.9,0000.0,0005.77,0015.71,0004.88
2021-10-28 21:47:00,,0830.9,5.01,0.00,26.9,26.3,00.0,35.8,28.8,11.9,0000.0,0005.79,0015.96,0004.88
2021-10-28 21:48:00,,0830.9,4.99,0.00,26.9,26.3,00.0,35.8,28.8,11.9,0000.0,0005.78,0015.85,0004.85
2021-10-28 21:49:00,,0830.9,4.99,0.00,26.9,26.3,00.0,35.8,28.8,12.0,0000.0,0005.76,0015.77,0004.83
2021-10-28 21:50:00,,0830.9,5.02,0.00,26.9,26.3,00.0,35.8,28.8,11.9,0000.0,0005.74,0015.68,0004.82
2021-10-28 21:51:00,,0830.9,5.02,0.00,26.9,26.3,00.0,35.8,28.8,11.9,0000.0,0005.76,0015.78,0004.83
2021-10-28 21:52:00,,0830.9,5.00,0.00,26.9,26.3,00.0,35.8,28.8,11.9,0000.0,0005.72,0014.69,0004.83
2021-10-28 21:53:00,,0831.0,5.00,0.00,26.9,26.3,00.0,35.8,28.8,11.9,0000.0,0005.72,0013.95,0004.85
2021-10-28 21:54:00,,0831.0,5.01,0.00,26.9,26.3,00.0,35.9,28.8,11.9,0000.0,0005.74,0013.52,0004.87
2021-10-28 21:55:00,,0831.0,5.01,0.00,26.9,26.3,00.0,35.9,28.8,11.9,0000.0,0005.75,0014.65,0004.88
2021-10-28 21:56:00,,0831.0,4.99,0.00,26.9,26.3,00.0,35.9,28.8,11.9,0000.0,0005.74,0014.86,0004.85
2021-10-28 21:57:00,,0831.0,5.00,0.00,26.9,26.3,00.0,35.9,28.8,11.9,0000.0,0005.75,0015.21,0004.84
2021-10-28 21:58:00,,0831.0,5.01,0.00,26.9,26.3,00.0,35.9,28.8,11.9,0000.0,0005.75,0015.44,0004.83
2021-10-28 21:59:00,,0831.0,5.00,0.00,26.9,26.3,00.0,35.9,28.8,11.9,0000.0,0005.74,0016.43,0004.83
